Total_Precipitation_Accumulation
0.08 0.11 0.32 0.41 0.46 0.47 0.47 0.45 0.42 0.38 0.37 0.39 0.40 0.39 0.37 0.38 0.39 0.39 0.43 0.47 0.50 0.50 0.54 0.64 0.68 0.70 0.68 0.65 0.67 0.64 0.56 0.51 0.50 0.50 0.55 0.59 0.56 0.47 0.40 0.37 0.33 0.39 0.47
0.05 0.09 0.23 0.31 0.37 0.43 0.47 0.43 0.37 0.31 0.32 0.34 0.33 0.32 0.31 0.31 0.33 0.35 0.42 0.49 0.53 0.52 0.54 0.61 0.68 0.69 0.68 0.65 0.65 0.57 0.43 0.33 0.29 0.27 0.29 0.39 0.46 0.46 0.41 0.38 0.39 0.53 0.57
0.03 0.07 0.16 0.27 0.33 0.38 0.42 0.40 0.34 0.29 0.27 0.29 0.28 0.30 0.29 0.30 0.32 0.35 0.42 0.47 0.52 0.59 0.59 0.58 0.71 0.75 0.76 0.71 0.64 0.54 0.41 0.27 0.18 0.16 0.17 0.29 0.43 0.52 0.47 0.41 0.42 0.48 0.53
0.02 0.04 0.09 0.23 0.31 0.36 0.38 0.36 0.33 0.29 0.26 0.27 0.27 0.29 0.31 0.32 0.33 0.36 0.44 0.49 0.55 0.65 0.67 0.69 0.75 0.73 0.71 0.64 0.58 0.50 0.42 0.28 0.15 0.12 0.12 0.24 0.44 0.57 0.53 0.47 0.42 0.43 0.47
0.02 0.04 0.09 0.21 0.30 0.34 0.35 0.35 0.33 0.30 0.27 0.27 0.29 0.28 0.32 0.33 0.34 0.34 0.38 0.47 0.53 0.63 0.61 0.61 0.68 0.66 0.63 0.60 0.53 0.52 0.51 0.35 0.19 0.09 0.09 0.18 0.37 0.60 0.56 0.52 0.44 0.39 0.42
0.02 0.04 0.10 0.21 0.32 0.33 0.35 0.39 0.39 0.34 0.31 0.30 0.31 0.32 0.33 0.36 0.36 0.36 0.35 0.35 0.40 0.47 0.50 0.54 0.59 0.59 0.56 0.52 0.45 0.48 0.55 0.45 0.21 0.08 0.10 0.16 0.30 0.53 0.55 0.53 0.46 0.42 0.39
0.04 0.06 0.11 0.23 0.34 0.36 0.36 0.40 0.41 0.36 0.34 0.34 0.36 0.38 0.38 0.37 0.38 0.36 0.31 0.30 0.30 0.33 0.37 0.47 0.56 0.57 0.55 0.49 0.44 0.47 0.53 0.42 0.18 0.16 0.18 0.19 0.28 0.42 0.57 0.59 0.52 0.48 0.44
0.05 0.08 0.13 0.28 0.38 0.39 0.36 0.38 0.45 0.41 0.38 0.36 0.38 0.42 0.44 0.45 0.44 0.41 0.35 0.30 0.27 0.27 0.30 0.37 0.47 0.62 0.59 0.48 0.46 0.49 0.47 0.28 0.13 0.13 0.18 0.22 0.28 0.45 0.78 0.85 0.65 0.53 0.50
0.09 0.11 0.16 0.27 0.36 0.40 0.39 0.39 0.44 0.43 0.42 0.42 0.43 0.44 0.44 0.45 0.45 0.46 0.43 0.37 0.36 0.33 0.32 0.34 0.40 0.58 0.59 0.51 0.50 0.52 0.38 0.18 0.10 0.17 0.16 0.25 0.25 0.50 0.88 0.98 0.86 0.67 0.56
0.12 0.16 0.21 0.27 0.33 0.39 0.40 0.39 0.41 0.41 0.43 0.44 0.44 0.40 0.36 0.37 0.42 0.41 0.38 0.35 0.36 0.38 0.37 0.33 0.34 0.45 0.50 0.49 0.56 0.49 0.25 0.13 0.09 0.12 0.22 0.22 0.22 0.51 0.94 1.05 0.97 0.81 0.67
0.17 0.20 0.25 0.31 0.34 0.38 0.40 0.37 0.39 0.42 0.41 0.41 0.39 0.35 0.34 0.34 0.36 0.33 0.28 0.28 0.34 0.38 0.38 0.37 0.37 0.40 0.43 0.41 0.46 0.36 0.18 0.11 0.09 0.14 0.22 0.20 0.23 0.49 0.93 1.09 1.02 0.92 0.83
0.19 0.23 0.27 0.32 0.35 0.39 0.38 0.41 0.43 0.40 0.37 0.33 0.29 0.30 0.34 0.38 0.40 0.37 0.32 0.29 0.34 0.37 0.40 0.43 0.45 0.42 0.39 0.35 0.45 0.36 0.19 0.14 0.13 0.10 0.13 0.13 0.27 0.52 0.80 1.00 1.09 1.01 0.95
0.18 0.24 0.32 0.38 0.41 0.44 0.42 0.41 0.43 0.43 0.40 0.39 0.35 0.34 0.39 0.44 0.44 0.43 0.41 0.39 0.36 0.34 0.37 0.40 0.45 0.40 0.42 0.54 0.68 0.53 0.36 0.28 0.18 0.11 0.08 0.10 0.23 0.44 0.67 0.85 1.05 1.15 1.14
0.20 0.22 0.29 0.37 0.45 0.50 0.48 0.45 0.41 0.38 0.38 0.39 0.41 0.41 0.42 0.41 0.38 0.37 0.34 0.34 0.36 0.36 0.37 0.39 0.40 0.42 0.42 0.47 0.51 0.46 0.36 0.32 0.22 0.17 0.12 0.11 0.15 0.26 0.44 0.64 0.86 1.13 1.23
0.20 0.23 0.27 0.31 0.39 0.47 0.51 0.49 0.45 0.41 0.38 0.36 0.36 0.37 0.39 0.39 0.36 0.34 0.32 0.31 0.31 0.31 0.33 0.34 0.32 0.34 0.39 0.41 0.38 0.35 0.33 0.28 0.24 0.22 0.18 0.16 0.14 0.18 0.30 0.50 0.68 0.93 1.20
0.19 0.23 0.27 0.31 0.34 0.42 0.42 0.42 0.45 0.46 0.45 0.43 0.39 0.34 0.33 0.33 0.32 0.30 0.28 0.27 0.27 0.29 0.29 0.30 0.31 0.33 0.34 0.36 0.33 0.30 0.28 0.24 0.22 0.23 0.22 0.21 0.19 0.18 0.25 0.39 0.55 0.73 1.04
0.19 0.24 0.28 0.33 0.34 0.39 0.42 0.40 0.40 0.44 0.47 0.46 0.40 0.37 0.34 0.30 0.29 0.29 0.29 0.27 0.25 0.28 0.34 0.41 0.42 0.43 0.44 0.42 0.38 0.37 0.34 0.30 0.26 0.28 0.29 0.26 0.26 0.24 0.26 0.39 0.51 0.62 0.83
0.19 0.25 0.31 0.33 0.36 0.39 0.46 0.49 0.43 0.44 0.46 0.42 0.40 0.41 0.39 0.35 0.33 0.32 0.30 0.30 0.26 0.28 0.34 0.43 0.51 0.54 0.50 0.48 0.46 0.46 0.46 0.43 0.36 0.35 0.36 0.32 0.31 0.29 0.27 0.33 0.47 0.58 0.75
0.18 0.22 0.30 0.34 0.37 0.41 0.51 0.58 0.49 0.47 0.50 0.47 0.44 0.45 0.44 0.42 0.40 0.37 0.36 0.33 0.30 0.32 0.35 0.39 0.41 0.46 0.51 0.56 0.58 0.57 0.60 0.60 0.53 0.45 0.39 0.35 0.33 0.30 0.30 0.33 0.38 0.45 0.61
0.20 0.24 0.29 0.36 0.45 0.51 0.59 0.69 0.65 0.52 0.50 0.52 0.49 0.44 0.45 0.47 0.45 0.42 0.41 0.38 0.36 0.35 0.37 0.39 0.42 0.43 0.44 0.51 0.57 0.55 0.57 0.58 0.57 0.52 0.46 0.45 0.42 0.35 0.32 0.32 0.36 0.36 0.42
0.19 0.23 0.27 0.32 0.45 0.55 0.59 0.65 0.66 0.49 0.45 0.49 0.47 0.41 0.42 0.44 0.44 0.43 0.42 0.40 0.38 0.36 0.36 0.39 0.40 0.40 0.39 0.42 0.48 0.44 0.40 0.42 0.44 0.43 0.41 0.43 0.45 0.46 0.45 0.41 0.38 0.38 0.39
0.16 0.19 0.23 0.27 0.35 0.45 0.48 0.57 0.67 0.60 0.52 0.53 0.49 0.45 0.44 0.44 0.42 0.41 0.40 0.40 0.40 0.39 0.36 0.35 0.38 0.41 0.38 0.37 0.45 0.49 0.42 0.37 0.34 0.31 0.32 0.35 0.40 0.46 0.49 0.50 0.49 0.46 0.42
0.16 0.17 0.20 0.24 0.30 0.40 0.49 0.59 0.71 0.81 0.68 0.61 0.55 0.50 0.49 0.47 0.46 0.45 0.43 0.43 0.42 0.44 0.41 0.35 0.35 0.41 0.42 0.40 0.43 0.59 0.66 0.48 0.34 0.26 0.27 0.29 0.32 0.34 0.35 0.39 0.43 0.47 0.49
0.19 0.19 0.21 0.26 0.29 0.33 0.43 0.54 0.59 0.67 0.64 0.49 0.43 0.44 0.45 0.44 0.44 0.43 0.43 0.43 0.44 0.45 0.44 0.44 0.41 0.41 0.44 0.44 0.42 0.44 0.51 0.53 0.59 0.42 0.21 0.19 0.23 0.26 0.28 0.29 0.31 0.34 0.40
0.22 0.22 0.22 0.29 0.32 0.32 0.35 0.43 0.52 0.60 0.61 0.59 0.50 0.46 0.47 0.47 0.44 0.43 0.41 0.41 0.42 0.43 0.43 0.45 0.46 0.48 0.48 0.48 0.49 0.46 0.42 0.40 0.47 0.64 0.39 0.19 0.19 0.19 0.23 0.27 0.32 0.35 0.38
0.25 0.26 0.28 0.29 0.31 0.32 0.36 0.40 0.46 0.53 0.59 0.66 0.62 0.54 0.50 0.51 0.51 0.47 0.43 0.42 0.42 0.41 0.41 0.42 0.44 0.46 0.48 0.49 0.50 0.50 0.54 0.55 0.50 0.59 0.55 0.32 0.25 0.20 0.20 0.23 0.28 0.34 0.42